Voltar ao catálogo

NOAA 14 DEB

AtivoSSO
NORAD 38732·DEBRIS·🇺🇸 United States

Lançado Dec 30, 1994 de Vandenberg Space Force Base

Loading…

Próximas Passagens (próximas 24 horas)

TLE

AtualizadoSource: Space-Track

Época: Sep 14, 2026, 06:38 UTC

1 38732U 94089D   26257.27671190  .00001486  00000-0  53567-3 0  9996
2 38732  98.6337 351.8285 0010790 126.7029 233.5149 14.35121380733959

Acompanhe NOAA 14 DEB em tempo real com AllMySat

Download on the App Store